Location: Gönnheim
(49.4488°N, 8.2383°E)
Time: 10:48:07
(UTC+00:00)

Meteor 1-5 Rocket - Pass Details

Date: 19 May 2025
Orbit: 788 x 913 km, 81.2° (Epoch: 23 June)

Event Time Altitude Azimuth Distance (km) Brightness Sun altitude
Rises 20:20:27 0° 347° (NNW) 3,548 8.6 -9.6°
Reaches altitude 10° 20:22:55 10° 346° (NNW) 2,609 7.8 -9.9°
Maximum altitude 20:28:55 82° 260° (W) 928 4.5 -10.5°
Drops below altitude 10° 20:34:51 10° 174° (S) 2,586 6.2 -11.2°
Enters shadow 20:35:12 - 174° (S) 2,716 6.3 -11.2°
